Location: G�migny
(47.9646°N, 1.6950°E)
Time: 04:42:34
(UTC+00:00)

ATLAS 3B R/B - Pass Details

Date: 23 October 2019
Orbit: 1029 x 1166 km, 63.8° (Epoch: 10 November)

Event Time Altitude Azimuth Distance (km) Brightness Sun altitude
Rises 18:39:40 0° 202° (SSW) 3,827 5.8 -18.9°
Reaches altitude 10° 18:42:21 10° 198° (SSW) 2,860 5.1 -19.3°
Maximum altitude 18:48:54 57° 122° (ESE) 1,205 2.6 -20.4°
Enters shadow 18:52:29 27° 55° (NE) 1,864 3.6 -21.0°
